#timestamp,LO_Frequency,Hit 
1498593615.1,286046182.9,N
1498593635.9,286046183.2,N
1498593655.7,286046179.0,N
1498593675.6,286046181.7,N
1498593695.4,286046178.9,N
1498593715.2,286046181.4,N
1498593735.1,286046181.8,N
1498593736.0,286046181.8,N
1498593755.8,286046178.9,N
1498593775.6,286046181.4,N
1498593795.5,286046180.7,N
1498593815.3,286046179.0,N
1498593835.2,286046177.9,N
1498593855.9,286046176.2,N
1498593875.7,286046176.5,N
1498593895.6,286046176.5,N
1498593915.4,286046175.7,N
1498593935.2,286046177.6,N
1498593955.1,286046179.8,N
1498593956.0,286046179.8,N
1498593975.8,286046179.0,N
1498593995.7,286046177.5,N
1498594015.5,286046177.3,N
1498594035.3,286046179.1,N
1498594055.2,286046180.3,N
1498594075.0,286046178.4,N
1498594075.9,286046178.4,N
1498594095.8,286046178.3,N
1498594115.6,286046180.1,N
1498594135.4,286046179.5,N
1498594155.3,286046177.7,N
1498594175.1,286046176.5,N
1498594195.8,286046176.2,N
1498594215.7,286046178.6,N
1498594235.5,286046176.1,N
1498594255.4,286046179.7,N
1498594275.2,286046183.1,N
1498594295.0,286046177.4,N
1498594295.9,286046177.4,N
1498594315.8,286046179.8,N
1498594335.6,286046179.3,N
1498594355.4,286046178.9,N
1498594375.3,286046181.7,N
1498594395.1,286046184.7,N
1498594415.9,286046183.5,N
1498594435.7,286046179.1,N
1498594455.5,286046182.0,N
1498594475.4,286046180.8,N
1498594495.2,286046181.2,N
1498594515.0,286046179.1,N
1498594515.9,286046179.1,N
1498594535.8,286046179.3,N
1498594555.6,286046179.8,N
1498594575.5,286046179.4,N
1498594595.3,286046183.6,N
1498594615.1,286046183.4,N
1498594635.9,286046181.0,N
1498594655.7,286046179.4,N
1498594675.5,286046179.5,N
1498594695.4,286046179.3,N
1498594715.2,286046181.9,N
1498594735.1,286046178.9,N
1498594736.0,286046178.9,N
1498594755.8,286046179.2,N
1498594775.6,286046180.1,N
1498594795.5,286046179.4,N
1498594815.3,286046179.3,N
1498594835.2,286046180.9,N
1498594855.9,286046181.4,N
1498594875.7,286046179.3,N
1498594895.6,286046181.7,N
1498594915.4,286046181.2,N
1498594935.2,286046179.8,N
1498594955.1,286046180.4,N
1498594956.0,286046180.4,N
1498594975.8,286046177.7,N
1498594995.7,286046177.8,N
1498595015.5,286046178.1,N
1498595035.3,286046181.1,N
1498595055.2,286046181.0,N
1498595075.0,286046182.8,N
1498595075.9,286046182.8,N
1498595095.7,286046180.7,N
1498595115.6,286046179.5,N
1498595135.4,286046179.1,N
1498595155.3,286046181.1,N
1498595175.1,286046179.4,N
1498595176.0,286046179.4,N
1498595195.8,286046183.6,N
1498595215.7,286046180.6,N
1498595235.5,286046183.0,N
1498595255.3,286046179.3,N
1498595275.2,286046181.3,N
1498595295.0,286046181.3,N
1498595295.9,286046181.3,N
1498595315.8,286046183.1,N
1498595335.6,286046183.1,N
1498595355.4,286046179.8,N
1498595375.3,286046181.9,N
1498595395.1,286046179.4,N
1498595415.9,286046181.6,N
1498595435.7,286046180.6,N
1498595455.5,286046183.1,N
1498595475.4,286046181.3,N
1498595495.2,286046182.9,N
1498595515.0,286046184.8,N
1498595515.9,286046184.8,N
1498595535.8,286046182.7,N
1498595555.6,286046182.3,N
1498595575.5,286046180.7,N
1498595595.3,286046182.7,N
1498595615.1,286046182.9,N
1498595635.9,286046179.1,N
1498595655.7,286046179.7,N
1498595675.5,286046180.7,N
1498595695.4,286046180.4,N
1498595715.2,286046182.1,N
1498595735.1,286046183.9,N
1498595736.0,286046183.9,N
1498595755.8,286046182.8,N
1498595775.6,286046182.3,N
1498595795.5,286046182.7,N
1498595815.3,286046182.8,N
1498595835.1,286046182.2,N
1498595855.9,286046186.5,N
1498595875.7,286046184.3,N
1498595895.6,286046183.8,N
1498595915.4,286046186.6,N
1498595935.2,286046184.2,N
1498595955.1,286046184.7,N
1498595956.0,286046184.7,N
1498595975.8,286046184.8,N
1498595995.6,286046182.6,N
1498596015.5,286046185.2,N
1498596035.3,286046182.9,N
1498596055.2,286046184.4,N
1498596075.9,286046184.2,N
1498596095.7,286046185.6,N
1498596115.6,286046186.4,N
1498596135.4,286046188.4,N
1498596155.3,286046186.8,N
1498596175.1,286046184.9,N
1498596176.0,286046184.9,N
1498596195.8,286046184.4,N
1498596215.7,286046184.5,N
1498596235.5,286046182.4,N
1498596255.3,286046181.2,N
1498596275.2,286046180.6,N
1498596295.0,286046180.8,N
1498596295.9,286046180.8,N
1498596315.8,286046181.8,N
1498596335.6,286046183.3,N
1498596355.4,286046182.2,N
1498596375.3,286046185.2,N
1498596395.1,286046183.6,N
1498596415.8,286046182.1,N
1498596435.7,286046182.8,N
1498596455.5,286046182.9,N
1498596475.4,286046185.2,N
1498596495.2,286046184.5,Y
1498596515.0,286047025.9,N
1498596515.9,286047025.9,N
1498596535.8,286047023.8,N
1498596555.6,286047023.7,N
1498596575.5,286047025.7,N
1498596595.3,286047025.6,N
1498596615.1,286047026.2,N
1498596635.9,286047026.6,N
1498596655.7,286047026.7,N
1498596675.5,286047025.0,N
1498596695.4,286047025.2,N
1498596715.2,286047023.7,N
1498596735.1,286047025.9,N
1498596736.0,286047025.9,N
1498596755.8,286047028.0,N
1498596775.6,286047027.5,N
1498596795.5,286047028.2,N
1498596815.3,286047023.9,N
1498596835.2,286047025.0,N
1498596855.9,286047024.0,N
1498596875.7,286047025.6,N
1498596895.6,286047026.8,N
1498596915.4,286047024.1,N
1498596935.2,286047024.4,N
1498596955.1,286047024.1,N
1498596956.0,286047024.1,N
1498596975.8,286047026.3,N
1498596995.7,286047028.1,N
1498597015.5,286047022.5,N
1498597035.3,286047026.2,N
1498597055.2,286047024.9,N
1498597075.0,286047024.6,N
1498597075.9,286047024.6,N
1498597095.7,286047026.3,N
1498597115.6,286047024.5,N
1498597135.4,286047024.4,N
1498597155.3,286047024.6,N
1498597175.1,286047024.7,N
1498597176.0,286047024.7,N
1498597195.8,286047025.1,N
